Temp
31 29 27 28 30 31 32 31 32 33 35 34 33 33 34 35 35 35 35 34 36 35 35 34 33 32 30 29 28 28 27 26 26 25 25 25 25 25 25 26 25 25 25 25
30 28 31 33 33 33 33 31 31 33 34 34 32 32 34 34 34 35 35 35 35 36 35 33 33 32 30 28 28 27 27 26 25 24 24 24 24 25 25 26 26 26 26 25
30 32 35 35 34 34 32 31 32 32 34 33 32 31 31 34 35 36 35 34 35 35 34 32 32 32 30 28 28 27 26 26 25 24 24 24 24 24 25 25 26 26 26 26
33 34 35 34 34 34 30 33 34 33 30 28 33 29 29 32 31 32 32 31 32 32 34 33 32 31 30 29 27 27 26 25 24 24 23 24 24 24 25 25 26 26 26 26
31 33 32 33 34 35 32 33 32 32 30 30 30 28 28 32 31 31 32 34 33 33 34 33 33 32 31 29 27 27 25 25 24 24 24 24 24 25 25 25 26 26 26 26
32 34 34 33 35 36 35 33 31 30 28 26 30 29 29 30 31 31 32 32 33 32 30 30 28 33 32 30 27 26 25 25 24 24 24 24 24 25 26 26 26 26 26 25
31 33 35 36 34 34 33 29 25 25 25 27 29 29 28 31 31 30 31 31 30 25 25 27 25 32 31 29 27 26 25 25 24 24 24 24 25 26 27 26 26 26 25 26
29 28 32 34 33 32 31 30 25 26 26 28 29 29 26 26 24 23 22 22 26 25 25 24 22 21 31 30 28 26 25 25 24 24 24 25 25 25 26 27 27 27 26 27
28 29 32 33 34 33 31 29 30 28 28 27 28 29 28 25 24 23 23 23 22 22 24 20 20 20 21 24 28 27 26 25 24 24 24 25 25 25 26 26 27 27 27 26
29 26 30 32 33 33 31 32 28 26 26 25 27 26 24 23 23 22 22 22 21 20 22 20 20 18 17 19 20 28 26 25 25 24 24 24 24 25 25 26 26 27 27 27
30 27 27 29 29 29 29 28 27 27 25 24 24 25 24 25 22 21 21 22 21 20 21 20 19 17 17 22 18 25 27 26 25 25 24 24 24 25 25 26 26 27 27 26
29 27 24 26 29 31 31 30 27 23 25 24 24 24 26 25 24 22 21 21 22 21 19 19 19 19 18 15 21 29 28 26 25 25 25 25 24 25 25 26 26 26 27 26
29 24 22 24 25 29 28 29 28 26 24 24 24 24 25 24 24 21 21 21 21 21 20 20 20 21 21 21 20 20 21 27 26 25 25 25 25 24 26 26 26 27 26 26
27 25 23 23 24 27 27 29 29 27 25 25 24 26 24 22 22 21 20 19 20 20 20 20 19 18 19 19 19 19 20 21 26 27 25 24 23 20 22 23 25 26 26 26
25 24 25 25 27 28 28 28 29 28 28 27 23 22 22 21 20 20 20 20 21 18 19 19 18 18 18 19 19 19 19 18 18 19 18 19 19 20 19 18 19 20 23 25
24 22 24 24 27 28 27 28 29 29 27 25 24 21 20 20 21 20 20 20 21 21 21 19 20 20 18 18 19 19 18 19 18 19 19 20 20 20 20 20 17 17 16 22
23 23 22 23 25 26 25 25 25 23 22 23 22 22 21 22 20 17 18 20 22 22 21 21 19 18 18 18 19 18 19 19 20 18 18 18 18 22 19 19 20 21 18 17
23 21 22 23 23 22 23 22 23 23 22 21 21 21 23 24 18 17 17 18 20 21 21 20 19 19 19 19 19 20 19 19 19 18 18 18 18 17 20 21 19 20 18 17
26 23 23 21 21 24 25 22 20 19 21 22 21 21 24 22 20 18 17 17 20 20 19 19 20 20 19 19 19 19 19 18 18 18 18 17 18 19 17 18 18 19 19 20
22 20 19 18 19 21 20 22 23 20 21 22 23 21 22 20 19 18 17 17 19 19 20 20 20 20 19 19 19 18 18 18 17 17 17 18 18 18 18 18 18 18 19 21
23 22 20 19 20 22 22 21 22 21 20 17 18 21 20 19 18 17 16 16 19 19 20 20 20 19 18 18 18 17 16 16 17 18 17 17 18 18 18 18 18 19 19 19
22 20 20 19 20 21 21 22 21 19 18 18 19 21 20 19 19 17 17 17 19 19 20 19 19 18 18 18 18 17 17 17 18 18 18 18 18 18 18 18 18 18 17 18
22 21 19 20 19 21 20 20 21 18 19 21 22 21 21 20 19 18 17 17 16 19 20 20 19 19 19 19 18 18 18 18 18 18 18 18 19 19 19 19 18 18 19 18
22 23 21 21 23 23 23 22 21 23 22 22 21 20 20 19 18 17 16 16 17 18 19 20 19 19 18 19 19 19 19 19 19 19 19 19 19 19 19 19 19 19 18 19
22 23 23 22 22 23 23 21 21 21 22 20 20 20 19 18 18 17 17 17 17 18 18 19 18 18 18 19 19 19 19 19 19 19 19 20 20 20 20 20 19 19 19 19
23 22 21 20 22 21 21 20 20 20 20 21 19 19 19 18 16 16 15 16 16 17 18 18 18 18 18 19 19 19 19 19 19 19 19 19 19 20 20 21 20 20 19 18
Height
734 758 772 756 745 740 741 746 746 729 710 716 719 713 703 689 686 688 681 681 676 677 676 681 690 699 707 713 718 724 732 740 748 753 759 765 768 773 777 780 783 786 788 793
749 764 735 725 726 730 733 741 743 724 709 712 719 719 701 690 687 682 680 677 673 671 671 679 686 693 698 703 711 717 722 730 738 746 752 759 764 769 773 777 780 782 784 788
752 735 712 717 724 729 732 741 737 735 713 707 716 727 717 692 678 672 671 671 666 668 671 675 682 686 692 700 704 708 714 721 730 740 748 757 763 768 770 773 775 777 780 782
732 713 717 720 725 723 751 719 718 722 740 763 715 758 729 704 701 691 684 679 674 670 666 664 672 680 684 689 696 703 708 714 723 732 741 748 753 756 759 765 769 773 774 776
742 729 728 729 723 712 733 714 722 722 736 741 732 756 733 701 708 699 687 678 674 668 662 670 665 664 671 680 687 694 703 710 716 724 733 741 748 753 757 760 764 767 769 772
728 705 711 714 703 703 704 718 725 727 739 772 732 741 739 719 705 696 682 674 669 670 666 670 673 656 660 673 684 691 697 703 709 717 727 734 741 745 750 752 757 760 763 767
732 717 693 699 714 705 712 742 783 786 782 774 725 737 730 701 688 689 686 681 678 677 672 679 671 652 655 665 674 681 689 695 701 709 718 727 732 738 741 746 750 754 757 760
763 766 724 708 719 726 728 734 779 790 786 761 725 742 746 714 708 709 702 699 686 682 684 695 685 686 649 654 664 673 680 686 692 699 707 716 724 730 736 740 744 747 749 752
763 756 717 714 707 713 727 744 721 750 739 756 738 721 706 713 711 710 707 698 694 692 698 696 692 692 686 688 665 669 677 684 687 689 698 706 715 722 729 735 738 742 745 749
745 772 735 718 708 704 719 707 745 751 777 780 752 752 757 738 726 719 707 701 699 691 687 689 689 697 692 685 695 684 676 676 681 689 695 702 708 715 723 730 733 737 741 744
736 755 756 734 738 742 732 738 735 739 754 779 781 761 733 731 728 724 718 707 702 701 691 703 705 695 681 675 691 691 677 677 681 687 695 701 708 712 719 725 729 732 738 742
739 755 776 761 730 717 720 728 737 771 769 760 763 761 719 718 720 723 720 713 706 709 701 698 704 699 721 719 697 670 671 668 677 684 694 701 707 713 715 718 723 728 732 737
738 768 789 773 748 722 733 728 729 738 745 760 769 759 716 717 709 720 724 711 705 710 702 698 699 697 724 732 710 683 679 679 686 690 691 698 704 708 709 715 720 726 730 734
735 758 774 788 772 750 747 735 728 736 755 751 747 730 728 728 721 724 724 717 701 706 704 711 721 726 732 725 699 687 686 685 687 691 693 700 708 714 715 717 723 722 721 727
744 764 758 754 744 740 740 736 730 735 729 738 743 744 738 733 733 733 727 719 716 710 700 709 722 736 734 707 693 687 695 701 700 694 694 702 710 713 717 721 723 729 727 722
746 768 757 763 745 741 741 729 723 719 724 728 730 745 734 728 726 730 726 720 717 719 715 722 721 724 726 713 703 702 701 701 708 705 697 703 708 710 713 716 719 721 723 727
756 761 767 769 750 745 759 744 736 742 741 736 748 738 727 725 726 731 730 722 716 714 711 717 719 722 717 707 700 700 692 692 709 712 712 705 707 700 706 708 712 713 711 711
749 759 758 761 757 779 752 741 741 742 741 741 737 733 724 720 730 725 729 729 718 715 715 720 717 719 715 707 700 703 698 683 718 721 721 708 703 705 700 695 697 708 716 709
721 739 756 768 768 748 738 746 755 758 749 735 736 730 721 719 724 730 727 724 719 717 719 720 717 713 711 710 705 704 708 699 711 719 719 712 708 702 705 691 698 710 716 716
732 742 760 773 781 777 760 742 736 744 752 732 727 727 725 725 737 736 728 729 725 722 719 722 722 721 720 719 714 717 714 719 719 722 720 718 715 709 704 700 702 712 719 713
745 749 760 768 775 755 743 741 733 756 754 738 744 725 724 733 734 727 727 731 726 723 718 724 724 727 726 723 722 724 727 728 729 726 729 726 718 716 709 711 715 712 712 709
748 764 761 763 766 765 737 738 747 744 737 732 730 724 724 724 724 726 723 724 724 723 723 726 728 728 728 727 727 728 728 727 727 726 724 722 718 720 717 714 716 712 710 710
750 746 759 756 756 733 733 732 730 734 735 727 723 721 721 722 725 727 725 725 723 723 728 728 728 729 730 731 731 731 729 728 726 726 720 721 720 723 720 718 717 714 713 709
737 729 745 743 731 727 723 723 724 723 725 721 721 725 724 725 725 727 729 729 728 726 728 728 730 733 734 734 733 733 733 729 727 725 725 724 721 722 722 720 720 721 717 713
734 727 732 736 730 722 719 721 722 722 720 721 722 725 728 727 729 731 732 732 730 728 728 730 732 734 735 735 733 731 729 729 728 726 725 723 724 721 719 718 719 719 715 715
728 732 738 743 725 725 723 720 721 723 723 721 724 728 728 729 732 732 733 733 732 732 732 733 733 735 736 735 734 732 730 729 727 727 725 725 724 722 724 723 719 717 718 720
Wind_Speed
7 4 8 13 13 17 15 16 17 13 13 14 14 12 12 11 8 9 9 10 16 22 25 39 43 41 39 42 44 46 43 42 41 36 33 32 30 29 25 24 26 27 29 32
6 8 15 17 18 16 16 12 11 12 11 9 9 10 11 12 9 8 8 9 7 7 8 24 35 39 42 44 44 44 45 45 43 35 34 27 30 29 31 28 24 30 31 33
9 13 14 16 14 10 7 7 9 15 7 8 7 8 9 12 15 14 10 9 7 7 9 20 23 35 39 40 44 45 46 46 42 37 33 26 25 27 28 31 31 26 30 34
8 9 11 9 6 7 7 9 13 14 8 4 4 13 7 7 6 7 9 10 10 11 7 9 25 25 37 43 43 44 45 45 41 42 34 33 27 24 26 28 30 28 30 32
10 13 12 12 8 5 6 9 8 8 9 4 16 2 8 2 6 6 6 8 9 12 9 9 20 34 44 42 44 45 43 41 41 44 35 33 28 25 27 29 31 28 31 34
13 16 13 12 13 2 7 7 9 7 5 4 17 5 6 4 6 6 7 9 3 13 20 22 30 40 41 40 38 40 43 41 41 42 37 35 32 29 29 31 33 32 34 35
11 11 8 4 2 5 5 6 5 6 5 6 6 1 6 4 6 7 7 9 10 19 24 22 32 24 31 37 41 42 42 40 41 43 41 37 35 36 34 31 34 33 31 36
4 9 20 19 11 6 7 5 4 7 6 10 8 8 8 13 22 18 16 14 16 19 19 15 23 22 27 40 41 41 42 41 43 44 44 40 38 37 33 33 30 31 33 33
3 7 18 17 18 11 7 5 9 5 8 6 3 6 7 16 16 15 11 13 15 15 11 14 15 19 21 25 33 39 40 38 41 44 42 43 37 37 35 28 29 33 29 26
6 6 8 19 14 10 7 8 4 4 5 6 5 4 3 7 8 6 12 12 9 14 11 12 12 17 22 31 36 29 37 41 42 38 40 40 34 37 34 36 26 30 29 25
5 1 8 11 6 13 12 5 5 1 3 2 4 3 7 1 4 9 9 8 4 3 16 14 11 18 27 39 56 43 35 36 37 38 34 34 38 29 32 35 31 32 29 26
4 2 4 12 16 18 7 3 3 4 6 3 3 3 7 6 5 1 12 15 13 6 2 7 9 23 13 28 39 27 34 35 35 33 30 29 28 30 33 33 37 35 32 31
2 2 5 10 9 4 7 10 9 2 1 5 5 6 4 9 11 8 10 14 13 9 6 8 9 12 6 26 26 25 28 16 22 24 28 29 29 35 34 34 30 34 33 32
6 5 6 7 10 12 15 14 13 10 5 6 7 9 6 6 8 7 7 8 10 11 11 9 8 8 13 2 16 27 32 24 10 22 18 11 7 5 9 15 21 32 37 36
3 2 6 11 15 15 18 19 18 16 13 11 7 6 5 6 5 5 6 5 7 6 7 9 8 7 17 6 21 30 30 29 20 23 31 24 22 19 12 15 14 28 32 36
6 5 6 8 12 16 18 18 17 17 6 7 11 2 7 6 3 5 6 6 8 7 1 4 3 6 10 9 10 22 25 29 15 16 15 12 11 15 17 12 13 19 26 11
5 5 5 12 10 12 11 13 11 9 8 3 4 3 4 4 12 7 10 9 6 4 7 7 5 0 4 9 14 17 26 26 24 10 5 6 8 10 15 12 3 19 32 33
11 7 6 12 7 9 4 14 13 4 4 2 1 6 5 3 8 8 6 6 8 7 5 5 3 2 6 11 18 17 19 34 13 5 5 3 6 4 22 24 25 13 24 27
15 9 4 2 1 8 4 10 4 4 4 4 5 6 6 8 6 3 3 5 4 7 6 6 11 13 16 16 21 20 19 25 15 7 2 1 3 7 3 8 7 15 25 32
10 9 5 3 3 4 3 8 3 5 3 6 6 7 6 7 4 3 2 7 5 5 11 10 14 17 18 20 24 21 19 14 12 7 9 7 7 10 10 1 4 13 15 16
3 2 4 5 5 3 1 6 9 4 2 5 22 3 6 1 4 3 3 6 4 5 14 11 16 14 16 20 21 18 15 14 13 14 14 14 14 13 12 8 2 2 1 4
4 3 1 1 4 4 4 2 2 3 4 7 9 2 4 3 4 4 5 3 3 7 14 16 14 18 16 16 16 15 15 13 16 16 17 18 19 17 14 13 9 10 5 9
1 4 3 6 4 6 6 7 3 3 2 4 5 5 4 3 2 3 3 8 1 7 10 15 16 16 14 12 11 10 9 11 12 14 16 15 17 15 18 18 16 14 15 13
3 2 2 3 1 4 3 5 4 1 3 1 3 0 2 4 3 5 5 4 2 9 8 14 17 13 13 12 11 11 12 9 10 12 9 8 9 10 9 14 15 16 15 15
2 1 2 2 8 5 4 5 3 5 2 4 5 3 2 4 4 4 5 5 5 9 13 12 12 10 7 9 10 10 11 13 14 16 12 13 12 10 9 11 9 8 10 10
2 2 1 3 5 5 3 5 2 3 0 2 8 5 4 6 6 4 4 6 8 8 7 9 10 9 9 8 7 6 8 9 12 13 15 14 14 14 6 8 10 8 3 2
Wind_Direction
261 189 230 234 231 241 254 262 273 286 297 301 297 294 297 299 311 306 270 191 203 189 191 183 181 180 176 178 179 181 180 189 190 189 191 195 198 205 205 208 202 197 201 203
262 240 237 239 251 251 249 260 276 277 280 285 298 299 300 299 285 271 268 279 215 217 170 181 178 175 177 180 182 181 183 186 190 190 195 197 200 206 212 209 215 214 213 210
222 245 254 249 244 261 279 302 296 299 271 301 316 309 286 281 286 284 287 285 264 222 223 173 177 178 179 181 184 183 183 185 185 187 189 193 201 209 211 214 219 221 216 214
268 292 291 292 306 300 295 293 322 321 358 290 320 293 290 270 329 4 346 360 345 328 259 184 178 185 179 188 185 184 183 183 183 186 186 191 196 201 207 206 214 220 215 215
280 303 303 307 292 306 286 319 317 304 296 320 286 269 280 1 315 287 309 302 307 309 21 313 192 183 187 184 183 184 182 183 182 186 189 190 199 207 208 207 211 215 213 214
271 269 259 244 260 263 260 270 285 285 269 300 267 172 270 298 266 282 276 284 322 356 4 350 337 186 185 182 179 180 182 185 182 185 189 193 197 201 204 202 206 210 211 212
312 304 290 306 261 342 304 2 324 336 350 267 321 322 226 266 282 235 298 339 8 7 10 356 347 189 176 175 179 182 183 185 184 185 190 195 200 204 207 207 204 208 205 213
345 319 25 339 324 261 274 187 188 276 283 284 316 279 15 28 50 46 39 12 7 10 350 354 3 344 185 179 179 182 185 185 185 185 191 196 201 204 209 211 210 210 209 211
358 300 335 327 320 321 298 301 230 266 283 290 255 337 17 13 23 11 24 40 3 355 359 38 4 0 358 353 184 185 188 189 188 188 189 194 198 201 206 208 214 210 207 206
3 328 316 311 321 311 346 299 4 335 339 310 342 107 244 335 349 327 2 355 7 342 4 42 24 5 343 343 326 218 191 190 192 190 192 195 196 201 203 211 207 200 203 209
0 302 310 329 325 326 328 343 3 48 102 229 319 312 139 271 337 326 324 307 354 325 340 65 37 16 359 323 308 268 201 193 191 192 191 194 199 199 201 210 211 207 205 206
67 308 312 303 301 291 294 48 98 112 289 238 188 262 139 117 55 327 304 315 335 24 65 317 57 75 348 296 278 237 205 191 190 186 189 192 194 200 201 206 212 210 209 210
96 327 331 321 318 323 44 337 327 234 91 226 253 264 137 51 31 25 1 355 346 356 30 13 44 57 44 276 339 24 27 197 182 178 183 191 197 199 207 208 212 215 209 210
135 186 200 254 255 282 308 322 319 309 297 276 229 263 31 8 47 313 322 344 15 11 24 29 48 4 268 300 34 39 35 36 196 199 200 197 187 18 245 223 229 215 211 199
52 330 311 300 306 314 311 307 298 288 289 288 9 74 4 339 317 283 291 285 50 51 17 11 10 290 265 46 50 53 39 40 60 86 79 70 52 42 34 5 7 6 217 196
334 300 298 289 289 288 295 298 299 291 9 35 85 110 244 256 253 315 319 336 321 294 76 180 180 319 304 350 75 94 67 43 24 82 103 79 52 35 27 340 24 357 296 276
285 276 287 276 280 285 297 344 10 72 34 359 65 283 204 296 71 35 356 352 10 37 24 30 65 46 334 11 26 49 74 60 19 26 97 87 81 100 80 76 186 17 328 312
247 231 247 262 280 276 100 32 41 81 50 2 286 303 330 10 117 63 4 334 21 21 51 10 22 108 67 60 54 57 71 82 74 17 320 113 74 101 120 114 86 67 290 284
234 226 228 229 314 312 32 29 31 54 290 266 241 285 328 354 106 30 339 323 1 62 59 41 47 51 70 61 65 57 50 72 84 39 4 227 107 71 325 121 220 246 258 287
86 81 92 62 44 268 38 333 276 163 276 305 21 35 348 23 44 262 322 329 5 54 89 76 67 73 68 71 72 62 57 75 77 83 58 71 98 102 123 333 249 253 256 267
349 338 136 136 224 252 237 308 291 258 257 24 304 17 23 48 276 165 191 262 308 103 90 95 89 82 81 74 71 69 65 55 65 60 56 50 59 57 56 65 118 152 171 166
152 214 342 307 220 229 174 234 15 213 242 230 247 304 151 222 316 232 217 294 34 87 93 95 83 82 79 71 72 67 58 55 59 54 51 49 47 40 44 47 49 42 339 241
163 163 183 163 228 255 186 195 203 272 286 334 336 8 320 181 122 295 142 85 1 76 122 108 98 92 88 84 82 80 57 53 53 55 44 44 47 43 47 37 30 40 57 68
288 296 227 27 257 334 32 174 168 69 201 331 43 328 329 215 173 114 93 119 115 80 84 107 104 97 88 91 76 70 52 37 23 21 34 36 43 30 36 47 41 38 45 63
170 69 225 249 276 270 308 96 57 332 189 69 104 80 66 105 137 164 148 135 94 85 82 91 92 79 64 97 82 58 38 39 31 19 29 23 19 17 13 18 24 23 44 54
69 232 131 228 271 231 173 128 34 293 189 70 118 111 98 95 107 98 66 65 89 86 85 87 87 77 58 51 54 68 46 23 16 11 4 0 352 352 343 350 2 351 0 31